Terminal Aerodrome Forecast
Issued by NWS

Home | Current Version | Previous Version | Text Only | Print | Product List | Glossary On
Versions: 1 2 3 4 5 6 7 8 9 10 11 12 13 14
000
FTUS42 TJSJ 292325
TAFJMZ
TAF
TJMZ 292325Z 3000/3024 12006KT P6SM SCT025
     FM301500 27010KT P6SM VCTS SCT025CB BKN040
     FM302200 06006KT P6SM VCSH SCT025 SCT050
      AMD NOT SKED TIL 301600=

USA.gov is the U.S. government's official web portal to all federal, state and local government web resources and services.